Погода в Баяндае

Россия / Иркутская область     53°03′31″N   105°30′03″E
темп.,
°C
ветер,
м/с
пор.,
м/с
влажн.,
%
обл.,
%
осадки,
мм/ч
давл.,
гПа
погр.,
м
25 июня, сб
сб2523:00+15ююз2256100 0.0 100326
02:00+14зюз1176100 0.0 100324
05:00+11ююз229570 0.0 100522
08:00+17зюз23725 0.0 1004434
11:00+22зсз455231 0.2 10031577
14:00+25зсз363898 0.7 10022821
17:00+23зсз67393 0.0 10032272
20:00+19з376216 0.0 1005173
26 июня, вс
вс2623:00+14з1170100 0.0 100711
02:00+12зюз1180100 0.0 100811
05:00+11з11875 0.0 100910
08:00+17зюз2269100 0.0 1009316
11:00+21з45535 0.0 10081270
14:00+23зсз2548100 0.0 10061840
17:00+25юз3543100 0.0 10051495
20:00+22ссз1160100 0.0 100511
27 июня, пн
пн2723:00+16в217030 0.0 100711
02:00+15в117342 0.0 100711
05:00+14в117567 0.0 100611
08:00+21в11575 0.0 1006166
11:00+27з12400 0.0 1004862
14:00+29сз23350 0.0 10021243
17:00+30зюз23335 0.0 1001907
20:00+26в23520 0.0 100031
28 июня, вт
вт2823:00+19ююз2261100 0.0 100214
02:00+17юв216195 0.0 100211
05:00+16вюв11646 0.0 100211
08:00+22вюв125213 0.0 1001201
11:00+30ю2431100 0.0 999964
14:00+33з2225100 0.0 9982172
17:00+33с223046 0.0 9971900
20:00+27юв33445 0.1 99832
29 июня, ср
ср2923:00+19зюз2263100 0.0 100016
02:00+16ю2295100 0.1 100121
05:00+16ююз359996 0.2 1002185
08:00+18зюз238674 0.2 1003432
11:00+21з4474100 0.0 1003820
14:00+23зюз4367100 0.1 10031134
17:00+24зсз226178 0.1 10011195
20:00+21зсз2375100 0.1 100289